Location: Falniów
(50.3639°N, 19.9642°E)
Time: 19:52:17
(UTC+00:00)

Cosmos 1743 Rocket - Pass Details

Date: 18 January 2026
Orbit: 597 x 626 km, 82.6° (Epoch: 14 February)

Event Time Altitude Azimuth Distance (km) Brightness Sun altitude
Rises 04:47:55 0° 205° (SSW) 2,898 6.9 -16.1°
Reaches altitude 10° 04:50:13 10° 212° (SSW) 1,994 6.0 -15.7°
Maximum altitude 04:54:28 45° 285° (WNW) 850 3.8 -15.1°
Drops below altitude 10° 04:58:43 10° 359° (N) 1,996 6.0 -14.4°
Sets 05:01:02 0° 6° (N) 2,902 6.9 -14.0°
